カタログに戻る

STARLINK-36062

運用中通信VLEO
NORAD 66794·PAYLOAD·🇺🇸 United States

打ち上げ Dec 1, 2025 から Cape Canaveral Space Force Station

Loading…

次のパス (今後24時間)

TLE

最新Source: CelesTrak SupGP

元期: Sep 14, 2026, 21:37 UTC

1 66794C 25278D   26257.90118056 -.00035270  00000+0 -12775-2 0  2577
2 66794  43.0017 126.0175 0001383 269.9406 107.0744 15.27594750    11

AllMySatでSTARLINK-36062をリアルタイム追跡

Download on the App Store